Tracking 19976 objects as of 15-Nov-2019
Live streaming from Space Station
objects crossing your sky now

NOAA 16 DEB

Track NOAA 16 DEB now!
10-day predictions


NORAD ID: 41278
Int'l Code: 2000-055GE
Perigee: 783.0 km
Apogee: 845.0 km
Inclination: 98.9 °
Period: 101.0 minutes
Semi major axis: 7185 km
RCS: Unknown
Launch date: September 21, 2000
Source: United States (US)
Launch site: AIR FORCE WESTERN TEST RANGE (AFWTR)

Note: This is SATELLITE DEBRIS
aabbcc
Your satellite tracking list
Your tracking list is empty




NASA's NSSDC Master Catalog

Two Line Element Set (TLE):
1 41278U 00055GE  19318.49687427  .00001827  00000-0  78498-3 0  9998
2 41278  98.8567  54.4767 0043153 235.9047 123.8034 14.25477943202322
Source of the keplerian elements: AFSPC